Weather in Bolshaya Berestovitsa

Belarus     53°11′30″N   24°01′06″E
temp.,
°C
wind,
m/s
gust,
m/s
humid.,
%
clouds,
%
prec.,
mm/h
press.,
hPa
HPBL,
m
31 july, sat
sat3100:00+17sw3566100 0.0 100770
03:00+16sw46720 0.0 100790
06:00+14sw347977 0.0 100860
09:00+19sw356874 0.0 1008274
12:00+24sw455183 0.0 10081042
15:00+26sw4648100 0.0 10071472
18:00+27sw144630 0.0 10051293
21:00+19sw71590100 1.2 1007500
1 august, sun
sun100:00+17ssw4688100 1.4 100897
03:00+17sw489686 1.4 1008165
06:00+15sw48925 0.0 1008149
09:00+19wsw4668100 0.0 1009310
12:00+23sw3548100 0.0 10091239
15:00+25ssw3547100 0.0 10081386
18:00+17w4790100 3.0 1008240
21:00+16ne119497 7.3 100834
2 august, mon
mon200:00+16ene1396100 1.7 1007132
03:00+16n3498100 3.5 1005225
06:00+15nnw3797100 3.1 1005343
09:00+15nw4995100 4.5 1005440
12:00+14w3696100 2.1 1007285
15:00+17w3587100 3.4 1008457
18:00+19w4677100 0.9 1008628
21:00+16w368911 2.1 1008137
3 august, tue
tue300:00+14w34949 0.1 101057
03:00+13wsw339452 0.1 101146
06:00+12wsw36960 0.0 1011110
09:00+16w510775 0.0 1012587
12:00+20w785763 0.0 10131623
15:00+19w5865100 0.3 10131292
18:00+19w37696 0.2 1014596
21:00+16wsw22735 0.2 101414
4 august, wed
wed400:00+13ssw22745 0.0 101512
03:00+13s3572100 0.0 101575
06:00+13s3773100 0.0 1014128
09:00+16s3874100 0.0 1014303
12:00+20s4670100 0.8 1013735
15:00+20ssw477629 6.6 1013531
18:00+22ssw2368100 2.2 1012126
21:00+18wsw2274100 2.3 101216